CW7615 Weather Reports


Display with metric or nautical units.
time (UTC)temp
F
wind
direction
speed
MPH
gust
MPH
rain 1hr
in
rain 24hr
in
rain mn
in
humidity
%
barometer
mb
20240530060509 66 351 2.0 6.0 0.00 0.00 0.00 64 1012.8
20240530060022 65 355 3.0 6.0 0.00 0.00 0.00 64 1012.8
20240530055507 65 355 2.0 4.0 0.00 0.00 0.00 66 1012.8
20240530055006 65 320 0.0 3.0 0.00 0.00 0.00 67 1012.7
20240530054506 65 290 1.0 3.0 0.00 0.00 0.00 66 1012.8
20240530054005 65 343 1.0 3.0 0.00 0.00 0.00 66 1012.7
20240530053504 65 331 0.0 0.0 0.00 0.00 0.00 68 1012.8
20240530053008 65 331 0.0 3.0 0.00 0.00 0.00 65 1012.8
20240530052503 65 332 0.0 3.0 0.00 0.00 0.00 65 1012.8
20240530052102 66 5 1.0 2.0 0.00 0.00 0.00 66 1012.8
20240530051504 66 5 0.0 2.0 0.00 0.00 0.00 68 1012.8
20240530051000 66 5 1.0 4.0 0.00 0.00 0.00 68 1012.8
20240530050603 66 5 0.0 5.0 0.00 0.00 0.00 65 1012.8
20240530050100 66 5 3.0 5.0 0.00 0.00 0.00 63 1012.9
20240530045600 67 5 2.0 5.0 0.00 0.00 0.00 64 1012.8
20240530045106 67 332 2.0 8.0 0.00 0.00 0.00 62 1012.7
20240530044600 67 345 5.0 8.0 0.00 0.00 0.00 62 1012.7
20240530044102 67 327 4.0 9.0 0.00 0.00 0.00 62 1012.6
20240530043559 67 332 4.0 9.0 0.00 0.00 0.00 62 1012.7
20240530043058 67 281 5.0 10.0 0.00 0.00 0.00 62 1012.6
20240530042558 67 355 6.0 10.0 0.00 0.00 0.00 62 1012.6
20240530042057 67 355 7.0 10.0 0.00 0.00 0.00 63 1012.7
20240530041557 67 324 4.0 8.0 0.00 0.00 0.00 63 1012.8
20240530041056 67 331 5.0 8.0 0.00 0.00 0.00 63 1012.7
20240530040556 67 325 4.0 9.0 0.00 0.00 0.00 64 1012.8
20240530040056 67 321 4.0 9.0 0.00 0.00 0.00 64 1012.8
20240530035555 67 322 5.0 9.0 0.00 0.00 0.00 64 1012.8
20240530035054 67 344 5.0 9.0 0.00 0.00 0.00 64 1012.8
20240530034616 67 329 4.0 9.0 0.00 0.00 0.00 65 1012.8
20240530034055 67 323 4.0 9.0 0.00 0.00 0.00 65 1012.8
20240530033557 67 348 4.0 9.0 0.00 0.00 0.00 65 1012.8
20240530033053 67 331 4.0 8.0 0.00 0.00 0.00 65 1012.9
20240530032552 67 337 3.0 9.0 0.00 0.00 0.00 65 1013.0
20240530032052 67 355 4.0 9.0 0.00 0.00 0.00 65 1013.0
20240530031552 67 342 4.0 9.0 0.00 0.00 0.00 66 1013.0
20240530031052 67 329 5.0 9.0 0.00 0.00 0.00 66 1013.0
20240530030551 67 355 6.0 9.0 0.00 0.00 0.00 67 1013.1
20240530030057 67 344 5.0 9.0 0.00 0.00 0.00 67 1013.1
20240530025550 67 341 4.0 6.0 0.00 0.00 0.00 67 1013.2
20240530025050 67 331 3.0 6.0 0.00 0.00 0.00 67 1013.2
20240530024550 67 338 3.0 8.0 0.00 0.00 0.00 67 1013.3
20240530024049 67 344 4.0 8.0 0.00 0.00 0.00 67 1013.2
20240530023549 67 348 4.0 9.0 0.00 0.00 0.00 67 1013.2
20240530023048 67 315 4.0 9.0 0.00 0.00 0.00 68 1013.3
20240530022551 67 350 3.0 8.0 0.00 0.00 0.00 68 1013.3
20240530022050 67 340 4.0 8.0 0.00 0.00 0.00 68 1013.2
20240530021547 68 348 4.0 6.0 0.00 0.00 0.00 68 1013.3
20240530021046 68 321 3.0 6.0 0.00 0.00 0.00 68 1013.4
20240530020546 68 340 4.0 9.0 0.00 0.00 0.00 68 1013.4
20240530020046 68 340 4.0 9.0 0.00 0.00 0.00 68 1013.4
20240530015545 68 345 4.0 8.0 0.00 0.00 0.00 68 1013.5
20240530015046 68 327 4.0 9.0 0.00 0.00 0.00 69 1013.5
20240530014549 68 355 6.0 9.0 0.00 0.00 0.00 69 1013.5
20240530014044 68 336 5.0 9.0 0.00 0.00 0.00 70 1013.4
20240530013543 68 334 5.0 8.0 0.00 0.00 0.00 70 1013.6
20240530013046 68 338 5.0 8.0 0.00 0.00 0.00 70 1013.5
20240530012542 67 331 4.0 6.0 0.00 0.00 0.00 71 1013.5
20240530012041 67 334 3.0 7.0 0.00 0.00 0.00 71 1013.5
20240530011540 67 349 3.0 8.0 0.00 0.00 0.00 71 1013.7
20240530011043 68 334 5.0 8.0 0.00 0.00 0.00 72 1013.7
20240530010539 68 311 4.0 8.0 0.00 0.00 0.00 72 1013.7
20240530010043 67 344 4.0 6.0 0.00 0.00 0.00 72 1013.9
20240530005539 68 350 4.0 6.0 0.00 0.00 0.00 73 1013.9
20240530005038 68 355 4.0 6.0 0.00 0.00 0.00 73 1014.0
20240530004542 67 333 4.0 6.0 0.00 0.00 0.00 74 1014.1
20240530004039 67 327 3.0 8.0 0.00 0.00 0.00 74 1014.1
20240530003540 67 5 5.0 8.0 0.00 0.00 0.00 74 1014.3
20240530003040 67 355 4.0 8.0 0.00 0.00 0.00 75 1014.2
20240530002535 67 342 2.0 5.0 0.00 0.00 0.00 75 1014.3
20240530002033 67 5 2.0 5.0 0.00 0.00 0.00 76 1014.3
20240530001545 67 17 2.0 5.0 0.00 0.00 0.00 76 1014.5
20240530001034 67 349 2.0 8.0 0.00 0.00 0.00 75 1014.4
20240530000531 67 355 2.0 9.0 0.00 0.00 0.00 76 1014.5
20240530000030 67 349 4.0 9.0 0.00 0.00 0.00 77 1014.5
20240529235529 66 360 4.0 7.0 0.00 0.00 0.00 78 1014.5
20240529235028 65 338 5.0 8.0 0.00 0.00 0.00 80 1014.5
20240529234534 65 345 3.0 8.0 0.00 0.00 0.00 82 1014.6
20240529234029 65 5 0.0 4.0 0.00 0.00 0.00 85 1014.7
20240529233525 65 5 0.0 6.0 0.00 0.00 0.00 84 1014.8
20240529233023 65 5 3.0 6.0 0.00 0.00 0.00 84 1014.8
20240529232521 64 335 2.0 5.0 0.00 0.00 0.00 86 1014.9
20240529232020 64 346 2.0 5.0 0.00 0.00 0.00 88 1015.0
20240529231519 64 347 0.0 1.0 0.00 0.00 0.00 91 1015.1
20240529231017 64 120 0.0 0.0 0.00 0.00 0.00 91 1015.3
20240529230519 64 120 0.0 0.0 0.00 0.00 0.00 91 1015.3
20240529230018 64 120 0.0 0.0 0.00 0.00 0.00 91 1015.4
20240529225517 64 120 0.0 0.0 0.00 0.00 0.00 91 1015.5
20240529225016 64 120 0.0 0.0 0.00 0.00 0.00 91 1015.6
20240529224521 64 120 0.0 0.0 0.00 0.00 0.00 91 1015.5
20240529224016 64 120 0.0 0.0 0.00 0.00 0.00 91 1015.5
20240529223516 64 120 0.0 0.0 0.00 0.00 0.00 91 1015.7
20240529223033 64 120 0.0 0.0 0.00 0.00 0.00 91 1015.6
20240529222515 64 120 0.0 0.0 0.00 0.00 0.00 91 1015.7
20240529222013 64 120 0.0 0.0 0.00 0.00 0.00 91 1015.7
20240529221513 65 120 0.0 0.0 0.00 0.00 0.00 91 1015.7
20240529221012 64 120 0.0 0.0 0.00 0.00 0.00 91 1015.8
20240529220515 64 120 0.0 0.0 0.00 0.00 0.00 91 1015.9
20240529220011 64 120 0.0 0.0 0.00 0.00 0.00 91 1015.8
20240529215511 64 120 0.0 0.0 0.00 0.00 0.00 91 1016.0
20240529215012 64 120 0.0 0.0 0.00 0.00 0.00 91 1016.0
20240529214511 64 120 0.0 0.0 0.00 0.00 0.00 90 1016.0
20240529214011 65 120 0.0 0.0 0.00 0.00 0.00 90 1015.9
20240529213511 65 120 0.0 0.0 0.00 0.00 0.00 90 1016.0
20240529213013 65 120 0.0 0.0 0.00 0.00 0.00 91 1016.0
20240529212510 65 120 0.0 0.0 0.00 0.00 0.00 90 1016.0
20240529212010 65 120 0.0 0.0 0.00 0.00 0.00 90 1016.1
20240529211510 65 120 0.0 0.0 0.00 0.00 0.00 90 1016.0
20240529211010 65 120 0.0 0.0 0.00 0.00 0.00 90 1016.1
20240529210509 65 120 0.0 0.0 0.00 0.00 0.00 90 1016.0
20240529210010 65 120 0.0 0.0 0.00 0.00 0.00 90 1016.1
20240529205509 65 120 0.0 0.0 0.00 0.00 0.00 90 1016.0
20240529205009 65 120 0.0 0.0 0.00 0.00 0.00 90 1016.0
20240529204509 65 120 0.0 0.0 0.00 0.00 0.00 89 1015.8
20240529204011 65 120 0.0 0.0 0.00 0.00 0.00 89 1015.8
20240529203508 65 120 0.0 0.0 0.00 0.00 0.00 89 1015.8
20240529203008 65 120 0.0 0.0 0.00 0.00 0.00 89 1015.6
20240529202508 65 120 0.0 0.0 0.00 0.00 0.00 89 1015.8
20240529202008 65 120 0.0 0.0 0.00 0.00 0.00 89 1015.7
20240529201508 65 120 0.0 0.0 0.00 0.00 0.00 89 1015.7
20240529201008 66 120 0.0 0.0 0.00 0.00 0.00 89 1015.5
20240529200508 66 120 0.0 0.0 0.00 0.00 0.00 89 1015.5
20240529200008 66 120 0.0 0.0 0.00 0.00 0.00 88 1015.4
20240529195507 66 120 0.0 0.0 0.00 0.00 0.00 88 1015.5
20240529195009 66 120 0.0 0.0 0.00 0.00 0.00 88 1015.4
20240529194512 66 120 0.0 0.0 0.00 0.00 0.00 87 1015.4
20240529194009 66 120 0.0 0.0 0.00 0.00 0.00 87 1015.4
20240529193507 67 123 0.0 0.0 0.00 0.00 0.00 87 1015.5
20240529193006 67 123 0.0 0.0 0.00 0.00 0.00 86 1015.4
20240529192505 67 123 0.0 0.0 0.00 0.00 0.00 86 1015.4
20240529192005 67 123 0.0 0.0 0.00 0.00 0.00 85 1015.4
20240529191516 67 123 0.0 0.0 0.00 0.00 0.00 85 1015.4
20240529191006 67 123 0.0 0.0 0.00 0.00 0.00 85 1015.3
20240529190506 68 123 0.0 0.0 0.00 0.00 0.00 85 1015.4
20240529190009 68 123 0.0 0.0 0.00 0.00 0.00 84 1015.3
20240529185505 68 123 0.0 0.0 0.00 0.00 0.00 84 1015.4
20240529185008 68 123 0.0 0.0 0.00 0.00 0.00 83 1015.1
20240529184505 69 123 0.0 0.0 0.00 0.00 0.00 83 1015.1
20240529184005 69 123 0.0 2.0 0.00 0.00 0.00 83 1015.1
20240529183505 69 123 0.0 2.0 0.00 0.00 0.00 82 1015.1
20240529183005 69 123 0.0 3.0 0.00 0.00 0.00 82 1015.0
20240529182504 69 123 2.0 3.0 0.00 0.00 0.00 82 1015.0
20240529182104 69 123 1.0 3.0 0.00 0.00 0.00 81 1015.0
20240529181604 70 123 0.0 4.0 0.00 0.00 0.00 81 1015.0
20240529181002 70 123 2.0 4.0 0.00 0.00 0.00 80 1015.0
20240529180502 71 123 2.0 4.0 0.00 0.00 0.00 79 1015.0
20240529180002 71 123 2.0 4.0 0.00 0.00 0.00 78 1014.9
20240529175502 71 123 1.0 3.0 0.00 0.00 0.00 78 1015.1
20240529175001 71 123 1.0 3.0 0.00 0.00 0.00 78 1015.1
20240529174506 71 123 0.0 2.0 0.00 0.00 0.00 79 1015.1
20240529174001 71 122 0.0 4.0 0.00 0.00 0.00 79 1015.0
20240529173501 71 119 1.0 4.0 0.00 0.00 0.00 79 1015.1
20240529173100 71 116 3.0 4.0 0.00 0.00 0.00 78 1015.2
20240529172602 71 125 2.0 7.0 0.00 0.00 0.00 78 1015.2
20240529172059 71 122 4.0 7.0 0.00 0.00 0.00 77 1015.2
20240529171602 72 123 2.0 7.0 0.00 0.00 0.00 77 1015.2
20240529171058 72 117 4.0 7.0 0.00 0.00 0.00 76 1015.2
20240529170601 72 121 3.0 6.0 0.00 0.00 0.00 76 1015.2
20240529170106 72 121 3.0 6.0 0.00 0.00 0.00 75 1015.3
20240529165557 72 122 1.0 4.0 0.00 0.00 0.00 76 1015.3
20240529165057 72 121 2.0 8.0 0.00 0.00 0.00 75 1015.5
20240529164606 73 121 3.0 8.0 0.00 0.00 0.00 75 1015.5
20240529164057 73 130 2.0 7.0 0.00 0.00 0.00 75 1015.5
20240529163557 73 121 3.0 7.0 0.00 0.00 0.00 74 1015.4
20240529163059 73 120 2.0 7.0 0.00 0.00 0.00 74 1015.5
20240529162555 73 122 2.0 7.0 0.00 0.00 0.00 74 1015.6
20240529162058 73 117 3.0 7.0 0.00 0.00 0.00 74 1015.7
20240529161556 73 104 2.0 8.0 0.00 0.00 0.00 75 1015.6
20240529161155 73 116 3.0 8.0 0.00 0.00 0.00 74 1015.7
20240529160554 73 111 2.0 7.0 0.00 0.00 0.00 74 1015.8
20240529160055 73 136 2.0 8.0 0.00 0.00 0.00 74 1015.9
20240529155553 73 128 2.0 8.0 0.00 0.00 0.00 74 1015.9
20240529155056 73 97 2.0 7.0 0.00 0.00 0.00 74 1015.9
20240529154553 73 134 4.0 8.0 0.00 0.00 0.00 74 1015.9
20240529154052 73 130 4.0 8.0 0.00 0.00 0.00 74 1016.0
20240529153552 73 117 5.0 8.0 0.00 0.00 0.00 74 1016.0
20240529153055 73 121 5.0 8.0 0.00 0.00 0.00 74 1016.1
20240529152552 73 101 5.0 9.0 0.00 0.00 0.00 74 1016.1
20240529152053 74 124 3.0 9.0 0.00 0.00 0.00 73 1016.0
20240529151551 74 119 6.0 9.0 0.00 0.00 0.00 73 1016.1
20240529151050 74 111 4.0 9.0 0.00 0.00 0.00 73 1016.0
20240529150550 74 118 4.0 9.0 0.00 0.00 0.00 73 1016.1
20240529150105 74 119 5.0 9.0 0.00 0.00 0.00 73 1016.2
20240529145549 74 114 4.0 9.0 0.00 0.00 0.00 73 1016.1
20240529145049 74 121 5.0 9.0 0.00 0.00 0.00 73 1016.3
20240529144549 74 112 4.0 8.0 0.00 0.00 0.00 73 1016.3
20240529144048 74 111 4.0 9.0 0.00 0.00 0.00 74 1016.3
20240529143548 74 140 5.0 9.0 0.00 0.00 0.00 73 1016.4
20240529143047 73 128 5.0 9.0 0.00 0.00 0.00 74 1016.5
20240529142546 73 120 5.0 9.0 0.00 0.00 0.00 74 1016.5
20240529142047 74 114 4.0 9.0 0.00 0.00 0.00 74 1016.7
20240529141545 74 87 4.0 9.0 0.00 0.00 0.00 73 1016.7
20240529141045 73 89 6.0 11.0 0.00 0.00 0.00 73 1016.8
20240529140545 73 124 6.0 11.0 0.00 0.00 0.00 74 1016.9
20240529140051 73 107 7.0 12.0 0.00 0.00 0.00 74 1016.9
20240529135543 73 107 5.0 10.0 0.00 0.00 0.00 74 1016.9
20240529135043 73 115 6.0 10.0 0.00 0.00 0.00 74 1016.9
20240529134542 73 112 7.0 10.0 0.00 0.00 0.00 74 1017.1
20240529134042 73 106 4.0 11.0 0.00 0.00 0.00 75 1017.2
20240529133542 73 107 7.0 11.0 0.00 0.00 0.00 74 1017.3
20240529133042 73 130 6.0 10.0 0.00 0.00 0.00 74 1017.4
20240529132542 73 114 4.0 8.0 0.00 0.00 0.00 73 1017.4
20240529132039 74 140 4.0 10.0 0.00 0.00 0.00 73 1017.5
20240529131549 73 105 4.0 10.0 0.00 0.00 0.00 74 1017.5
20240529131140 73 126 4.0 11.0 0.00 0.00 0.00 75 1017.6
20240529130538 73 179 6.0 11.0 0.00 0.00 0.00 74 1017.6
20240529130038 73 121 4.0 10.0 0.00 0.00 0.00 75 1017.7
20240529125538 73 128 3.0 10.0 0.00 0.00 0.00 75 1017.7
20240529125037 73 131 7.0 11.0 0.00 0.00 0.00 75 1017.7
20240529124537 73 128 8.0 11.0 0.00 0.00 0.00 74 1017.7
20240529124037 73 109 5.0 11.0 0.00 0.00 0.00 75 1017.7
20240529123537 73 103 7.0 12.0 0.00 0.00 0.00 75 1017.7
20240529123046 73 158 6.0 13.0 0.00 0.00 0.00 74 1017.8
20240529122535 73 74 4.0 13.0 0.00 0.00 0.00 74 1017.8
20240529122035 73 92 5.0 11.0 0.00 0.00 0.00 74 1018.0
20240529121535 74 78 6.0 11.0 0.00 0.00 0.00 72 1017.9
20240529121034 74 97 6.0 10.0 0.00 0.00 0.00 72 1017.9
20240529120532 74 107 4.0 12.0 0.00 0.00 0.00 74 1018.1
20240529120032 74 101 6.0 10.0 0.00 0.00 0.00 74 1018.0
20240529115532 73 98 4.0 12.0 0.00 0.00 0.00 74 1018.0
20240529115131 73 129 7.0 12.0 0.00 0.00 0.00 74 1018.1
20240529114531 73 163 3.0 11.0 0.00 0.00 0.00 74 1018.1
20240529114030 73 141 5.0 10.0 0.00 0.00 0.00 73 1018.2
20240529113529 73 100 4.0 12.0 0.00 0.00 0.00 74 1018.1
20240529113028 73 90 5.0 12.0 0.00 0.00 0.00 75 1018.2
20240529112528 72 98 3.0 12.0 0.00 0.00 0.00 75 1018.2
20240529112027 73 98 8.0 12.0 0.00 0.00 0.00 75 1018.4
20240529111629 73 186 4.0 12.0 0.00 0.00 0.00 76 1018.4
20240529111026 73 106 5.0 10.0 0.00 0.00 0.00 75 1018.4
20240529110530 73 126 5.0 10.0 0.00 0.00 0.00 75 1018.3
20240529110025 73 115 6.0 9.0 0.00 0.00 0.00 76 1018.4
20240529105525 73 149 4.0 13.0 0.00 0.00 0.00 76 1018.5
20240529105024 73 98 7.0 13.0 0.00 0.00 0.00 75 1018.5
20240529104524 73 92 5.0 11.0 0.00 0.00 0.00 76 1018.6
20240529104023 73 127 4.0 11.0 0.00 0.00 0.00 76 1018.5
20240529103522 73 108 4.0 11.0 0.00 0.00 0.00 76 1018.5
20240529103032 73 135 5.0 11.0 0.00 0.00 0.00 76 1018.6
20240529102520 73 131 4.0 11.0 0.00 0.00 0.00 77 1018.7
20240529102019 73 103 5.0 9.0 0.00 0.00 0.00 77 1018.6
20240529101518 72 103 4.0 9.0 0.00 0.00 0.00 77 1018.8
20240529101018 72 136 3.0 9.0 0.00 0.00 0.00 76 1018.8
20240529100619 72 94 2.0 9.0 0.00 0.00 0.00 78 1018.8
20240529100016 71 106 5.0 11.0 0.00 0.00 0.00 79 1018.7
20240529095519 71 139 3.0 11.0 0.00 0.00 0.00 78 1018.7
20240529095015 71 121 2.0 9.0 0.00 0.00 0.00 78 1018.8
20240529094516 71 115 3.0 8.0 0.00 0.00 0.00 78 1018.7
20240529094015 71 128 3.0 12.0 0.00 0.00 0.00 78 1018.7
20240529093515 72 110 4.0 12.0 0.00 0.00 0.00 77 1018.7
20240529093014 73 142 6.0 12.0 0.00 0.00 0.00 75 1018.6
20240529092515 73 106 5.0 10.0 0.00 0.00 0.00 74 1018.6
20240529092011 73 94 5.0 10.0 0.00 0.00 0.00 75 1018.5
20240529091511 73 117 7.0 10.0 0.00 0.00 0.00 73 1018.5
20240529091012 72 92 4.0 10.0 0.00 0.00 0.00 73 1018.6
20240529090507 72 104 2.0 8.0 0.00 0.00 0.00 74 1018.6
20240529090006 71 117 1.0 4.0 0.00 0.00 0.00 76 1018.6
20240529085505 70 147 0.0 6.0 0.00 0.00 0.00 76 1018.6
20240529085004 70 138 0.0 3.0 0.00 0.00 0.00 80 1018.6
20240529084501 69 76 0.0 4.0 0.00 0.00 0.00 82 1018.6
20240529084100 68 109 0.0 4.0 0.00 0.00 0.00 84 1018.7
20240529083602 68 178 1.0 4.0 0.00 0.00 0.00 84 1018.6
20240529083057 68 136 0.0 2.0 0.00 0.00 0.00 86 1018.6
20240529082555 67 121 0.0 2.0 0.00 0.00 0.00 87 1018.7
20240529082055 67 120 0.0 2.0 0.00 0.00 0.00 87 1018.6
20240529081554 67 120 0.0 2.0 0.00 0.00 0.00 88 1018.7
20240529081052 66 119 0.0 2.0 0.00 0.00 0.00 88 1018.8
20240529080551 66 119 1.0 3.0 0.00 0.00 0.00 88 1018.9
20240529080055 66 119 0.0 3.0 0.00 0.00 0.00 89 1018.9
20240529075549 66 119 1.0 4.0 0.00 0.00 0.00 89 1018.9
20240529075049 66 119 0.0 4.0 0.00 0.00 0.00 89 1018.9
20240529074550 66 119 2.0 4.0 0.00 0.00 0.00 89 1018.9
20240529074047 66 116 2.0 4.0 0.00 0.00 0.00 89 1019.0
20240529073547 66 115 2.0 4.0 0.00 0.00 0.00 89 1019.0
20240529073045 66 121 0.0 4.0 0.00 0.00 0.00 88 1019.0
20240529072544 66 122 2.0 4.0 0.00 0.00 0.00 88 1018.9
20240529072044 66 129 1.0 3.0 0.00 0.00 0.00 88 1018.9
20240529071551 66 98 0.0 3.0 0.00 0.00 0.00 87 1018.8
20240529071042 66 82 0.0 0.0 0.00 0.00 0.00 86 1018.8
20240529070540 66 38 0.0 0.0 0.00 0.00 0.00 84 1018.8
20240529070040 66 31 0.0 4.0 0.00 0.00 0.00 85 1018.7
20240529065544 66 22 2.0 5.0 0.00 0.00 0.00 85 1018.6
20240529065039 66 13 2.0 4.0 0.00 0.00 0.00 86 1018.7
20240529064539 65 9 2.0 4.0 0.00 0.00 0.00 86 1018.6
20240529064037 65 17 1.0 4.0 0.00 0.00 0.00 86 1018.6
20240529063537 65 43 1.0 4.0 0.00 0.00 0.00 86 1018.7
20240529063041 65 9 1.0 4.0 0.00 0.00 0.00 87 1018.7
20240529062543 65 24 1.0 4.0 0.00 0.00 0.00 87 1018.8
20240529062035 65 25 2.0 4.0 0.00 0.00 0.00 87 1018.8
20240529061534 65 17 2.0 4.0 0.00 0.00 0.00 87 1018.6
20240529061032 65 32 1.0 4.0 0.00 0.00 0.00 87 1018.6
20240529060532 65 22 0.0 4.0 0.00 0.00 0.00 87 1018.7